Folgueroles





Hora UTC 08:30
Temperatura 0.7 ºC
Humitat 95.0 %
Pressió 1002.7 hPa
Pluja 0.0 mm
Velocitat vent 0.0 km/h
Direcció vent ESE

Dades diàries 2019-11-15



Hora UTC (hivern +1h; estiu +2h)
Temperatura (ºC) Humitat (%) Pressió (hPa) Velocitat vent (km/h) Precipitació (mm)
Hora UTC Aire Humitat Pressió Vel. Dir. Vel. Max Dir. Intent. màx 5 min.
00:05 1.8 91.0 1000.1 0.0 SSE 0.0 0.0
00:10 1.7 91.0 1000.1 0.0 SSE 1.6 0.0
00:15 1.7 91.0 1000.1 0.0 SSE 0.0 0.0
00:20 1.7 91.0 1000.2 0.0 SSE 0.0 0.0
00:25 1.6 91.0 1000.3 0.0 SSE 0.0 0.0
00:30 1.6 91.0 1000.3 0.0 SSE 0.0 0.0
00:35 1.6 91.0 1000.2 0.0 SSE 0.0 0.0
00:40 1.6 91.0 1000.2 0.0 SSE 0.0 0.0
00:45 1.5 91.0 1000.3 0.0 SSE 0.0 0.0
00:50 1.4 91.0 1000.4 0.0 SSE 3.2 0.0
00:55 1.4 91.0 1000.3 0.0 E 4.8 0.0
01:00 1.3 91.0 1000.3 0.0 E 3.2 0.0
01:05 1.3 91.0 1000.4 0.0 E 0.0 0.0
01:10 1.2 92.0 1000.3 0.0 E 0.0 0.0
01:15 1.2 92.0 1000.5 0.0 E 0.0 0.0
01:20 1.1 92.0 1000.4 0.0 E 0.0 0.0
01:25 1.1 92.0 1000.5 0.0 E 0.0 0.0
01:30 1.1 92.0 1000.5 0.0 E 0.0 0.0
01:35 0.9 91.0 1000.6 0.0 E 0.0 0.0
01:40 0.9 91.0 1000.7 0.0 E 0.0 0.0
01:45 0.8 92.0 1000.7 0.0 E 0.0 0.0
01:50 0.8 92.0 1000.8 0.0 E 0.0 0.0
01:55 0.7 92.0 1000.7 0.0 E 0.0 0.0
02:00 0.7 92.0 1000.7 0.0 E 0.0 0.0
02:05 0.7 92.0 1000.8 0.0 E 0.0 0.0
02:10 0.6 92.0 1000.7 0.0 E 0.0 0.0
02:15 0.6 92.0 1000.7 0.0 E 0.0 0.0
02:20 0.6 93.0 1000.6 0.0 E 0.0 0.0
02:25 0.6 93.0 1000.6 0.0 E 1.6 0.0
02:30 0.6 93.0 1000.8 0.0 E 0.0 0.0
02:35 0.6 93.0 1000.7 0.0 E 0.0 0.0
02:40 0.6 93.0 1000.7 0.0 E 0.0 0.0
02:45 0.6 93.0 1000.7 0.0 E 0.0 0.0
02:50 0.6 93.0 1000.8 0.0 E 0.0 0.0
02:55 0.6 93.0 1000.8 0.0 E 0.0 0.0
03:00 0.6 93.0 1000.8 0.0 E 0.0 0.0
03:05 0.5 93.0 1000.8 0.0 E 0.0 0.0
03:10 0.5 93.0 1000.7 0.0 E 0.0 0.0
03:15 0.5 93.0 1000.8 0.0 E 1.6 0.0
03:20 0.4 93.0 1000.8 0.0 E 1.6 0.0
03:25 0.4 93.0 1000.8 0.0 E 0.0 0.0
03:30 0.4 93.0 1000.8 0.0 E 1.6 0.0
03:35 0.4 93.0 1000.7 0.0 E 0.0 0.0
03:40 0.4 93.0 1000.8 0.0 E 0.0 0.0
03:45 0.4 93.0 1000.8 0.0 E 0.0 0.0
03:50 0.4 93.0 1000.8 0.0 E 0.0 0.0
03:55 0.3 93.0 1000.9 0.0 E 0.0 0.0
04:00 0.4 93.0 1000.9 0.0 E 0.0 0.0
04:05 0.4 93.0 1000.9 0.0 E 0.0 0.0
04:10 0.4 93.0 1001.0 0.0 E 1.6 0.0
04:15 0.4 93.0 1001.0 0.0 E 1.6 0.0
04:20 0.4 93.0 1000.9 0.0 E 0.0 0.0
04:25 0.4 93.0 1000.9 0.0 E 1.6 0.0
04:30 0.4 93.0 1001.1 1.6 E 1.6 0.0
04:35 0.3 93.0 1001.0 0.0 E 3.2 0.0
04:40 0.3 93.0 1001.1 0.0 E 3.2 0.0
04:45 0.2 93.0 1000.8 0.0 E 0.0 0.0
04:50 0.2 93.0 1001.0 0.0 E 0.0 0.0
04:55 0.2 93.0 1001.0 0.0 E 0.0 0.0
05:00 0.1 93.0 1001.0 0.0 E 0.0 0.0
05:05 0.0 93.0 1001.0 0.0 E 0.0 0.0
05:10 -0.1 93.0 1000.9 0.0 E 0.0 0.0
05:15 -0.1 93.0 1001.0 0.0 E 0.0 0.0
05:20 -0.1 94.0 1001.1 0.0 E 0.0 0.0
05:25 -0.1 94.0 1001.2 0.0 E 0.0 0.0
05:30 0.0 94.0 1001.1 0.0 E 0.0 0.0
05:35 0.1 94.0 1001.1 0.0 E 0.0 0.0
05:40 0.3 95.0 1001.2 0.0 E 0.0 0.0
05:45 0.4 95.0 1001.2 0.0 E 0.0 0.0
05:50 0.4 94.0 1001.2 0.0 E 0.0 0.0
05:55 0.4 94.0 1001.2 0.0 E 0.0 0.0
06:00 0.4 94.0 1001.2 0.0 E 0.0 0.0
06:05 0.4 94.0 1001.3 0.0 E 0.0 0.0
06:10 0.4 95.0 1001.3 0.0 E 0.0 0.0
06:15 0.4 94.0 1001.3 0.0 E 0.0 0.0
06:20 0.4 95.0 1001.4 0.0 E 0.0 0.0
06:25 0.4 95.0 1001.5 0.0 E 0.0 0.0
06:30 0.3 95.0 1001.5 0.0 E 0.0 0.0
06:35 0.3 95.0 1001.5 0.0 E 0.0 0.0
06:40 0.3 95.0 1001.5 0.0 E 0.0 0.0
06:45 0.3 95.0 1001.6 0.0 E 0.0 0.0
06:50 0.3 95.0 1001.6 0.0 E 0.0 0.0
06:55 0.3 95.0 1001.7 0.0 E 0.0 0.0
07:00 0.3 95.0 1001.8 0.0 E 0.0 0.0
07:05 0.3 95.0 1001.8 0.0 E 0.0 0.0
07:10 0.4 95.0 1002.0 0.0 E 0.0 0.0
07:15 0.5 95.0 1002.1 0.0 E 0.0 0.0
07:20 0.6 95.0 1002.2 0.0 E 0.0 0.0
07:25 0.6 95.0 1002.3 0.0 E 0.0 0.0
07:30 0.6 95.0 1002.4 0.0 E 1.6 0.0
07:35 0.6 95.0 1002.5 0.0 E 1.6 0.0
07:40 0.6 95.0 1002.6 0.0 E 1.6 0.0
07:45 0.6 95.0 1002.6 0.0 E 0.0 0.0
07:50 0.7 95.0 1002.7 1.6 E 3.2 0.0
07:55 0.7 95.0 1002.6 0.0 E 3.2 0.0
08:00 0.6 95.0 1002.5 0.0 E 1.6 0.0
08:05 0.7 95.0 1002.6 0.0 E 1.6 0.0
08:10 0.8 95.0 1002.7 0.0 E 1.6 0.0
08:15 0.8 95.0 1002.5 0.0 E 1.6 0.0
08:20 0.8 95.0 1002.5 1.6 E 1.6 0.0
08:25 0.7 95.0 1002.6 0.0 E 1.6 0.0
08:30 0.7 95.0 1002.7 0.0 ESE 1.6 0.0
Màxima 1.8 95.0 1002.7 1.6 E 4.8 0.0
Mínima -0.1 91.0 1000.1
Total 0.0